Probability
0 2 6 7 5 4 4 3 2 1 0 0 0 1 3 3 3 1 0 0 0 0 0 0 0 0 0 0 0 0 1 2 2 2 3 3 3 3 3 2 1 1 1
0 2 6 7 6 5 6 5 4 3 1 1 1 2 3 3 3 2 1 1 0 0 0 0 0 0 0 0 0 0 0 1 1 1 1 1 1 2 2 2 2 2 2
1 3 6 8 7 6 5 5 6 6 4 3 3 3 3 3 3 3 3 3 1 0 0 0 0 0 0 0 0 0 0 0 0 0 0 0 0 1 1 1 2 3 3
2 3 6 9 8 6 3 3 5 7 5 4 3 3 3 4 4 4 5 4 3 1 1 1 0 0 0 0 0 0 0 0 0 0 0 0 0 0 0 0 1 2 2
3 3 5 8 8 6 3 3 4 5 5 4 3 4 4 5 6 6 5 4 3 3 2 2 1 1 0 0 0 0 0 0 0 0 0 0 0 0 0 0 0 1 1
2 2 3 6 7 7 4 3 3 3 4 3 4 4 5 6 6 6 4 3 3 3 3 3 3 2 1 0 0 0 0 0 0 0 0 0 0 0 0 0 0 0 0
2 2 3 4 6 6 4 3 1 1 2 2 3 4 4 5 6 5 3 3 3 3 3 3 3 3 2 1 0 0 0 0 0 0 0 0 0 0 0 0 0 0 0
3 3 3 4 5 5 4 2 1 0 1 1 1 2 3 3 3 3 2 2 3 3 3 3 3 3 3 2 1 0 0 0 0 0 0 0 0 0 0 0 0 0 0
3 3 3 3 4 4 2 1 0 0 0 0 0 1 1 1 1 1 0 1 1 2 2 2 2 3 3 2 1 0 0 0 0 0 0 0 0 0 0 0 0 0 0
3 3 3 3 3 3 2 0 0 0 0 0 0 0 0 0 0 0 0 0 0 1 1 1 1 1 2 2 1 0 0 0 0 0 0 0 0 0 0 0 0 0 1
1 2 3 3 3 3 2 1 0 0 0 0 0 0 0 0 0 0 0 0 0 0 0 0 0 0 1 1 0 0 0 0 0 0 0 0 0 0 0 0 1 1 2
1 2 3 3 3 3 2 1 0 0 0 0 0 0 0 0 0 0 0 0 0 0 0 0 0 0 0 0 0 0 0 0 0 0 0 0 0 0 0 1 2 3 4
2 3 3 3 3 3 2 1 0 0 0 0 0 0 0 0 0 0 0 0 0 0 0 0 0 0 0 0 0 0 0 0 0 0 0 0 0 0 0 1 2 4 5
3 3 3 3 3 3 2 1 0 0 0 0 0 0 0 0 0 0 0 0 0 0 0 0 0 0 0 0 0 0 0 0 0 0 0 0 0 0 0 1 2 3 3
3 3 3 3 3 3 2 1 0 0 0 0 0 0 0 0 0 0 0 0 0 0 0 0 0 0 0 0 0 0 0 0 0 0 0 0 0 0 0 0 1 2 3
3 3 2 3 3 3 2 1 0 0 0 0 0 0 0 0 0 0 0 0 0 0 0 0 0 0 0 0 0 0 0 0 0 0 0 0 0 0 0 0 0 1 3
3 3 2 2 3 2 1 0 0 0 0 0 0 0 0 0 0 0 0 0 0 0 0 0 0 0 0 0 0 0 0 0 0 0 0 0 0 0 0 0 0 1 3
3 3 2 1 1 1 1 0 0 0 0 0 0 0 0 0 0 0 0 0 0 0 0 0 0 0 0 0 0 0 0 0 0 0 0 0 0 0 0 0 0 1 2
2 3 3 1 0 0 0 0 0 0 0 0 0 0 0 0 0 0 0 0 0 0 0 0 0 0 0 0 0 0 0 0 0 0 0 0 0 0 0 0 0 1 2
1 2 2 2 1 0 0 0 0 0 0 0 0 0 0 0 0 0 0 0 0 0 0 0 0 0 0 0 0 0 0 0 0 0 0 0 0 0 0 0 0 0 1
0 1 1 2 1 0 0 0 0 0 0 0 0 0 0 0 0 0 0 0 0 0 0 0 0 0 0 0 0 0 0 0 0 0 0 0 0 0 0 0 0 0 0
0 0 0 1 1 0 0 0 0 0 0 0 0 0 0 0 0 0 0 0 0 0 0 0 0 0 0 0 0 0 0 0 0 0 0 0 0 0 0 0 0 0 0
0 0 0 0 0 0 0 0 0 0 0 0 0 0 0 0 0 0 0 0 0 0 0 0 0 0 0 0 0 0 0 0 0 0 0 0 0 0 0 0 0 0 0
0 0 0 0 0 0 1 1 0 0 0 0 0 0 0 0 0 0 0 0 0 0 0 0 0 0 0 0 0 0 0 0 0 0 0 0 0 0 0 0 0 0 0
0 0 0 0 0 0 1 2 1 0 0 0 0 0 0 0 0 0 0 0 0 0 0 0 0 0 0 0 0 0 0 0 0 0 0 0 0 0 0 0 0 0 0
0 0 0 0 0 0 1 2 2 1 0 0 0 0 0 0 0 0 0 0 0 0 0 0 0 0 0 0 0 0 0 0 0 0 0 0 0 0 0 0 0 0 0
Wind_Speed
1 1 3 7 10 10 10 10 10 10 10 11 11 11 11 11 11 11 11 11 11 11 11 12 12 12 12 12 12 12 13 13 12 12 12 12 12 11 11 11 10 7 11
3 2 4 6 9 10 10 10 10 10 10 10 10 11 11 11 11 11 10 10 10 10 11 11 11 12 12 11 11 12 12 12 12 12 11 10 10 10 10 10 10 7 10
4 3 4 6 8 9 9 10 10 10 10 10 10 11 11 10 10 10 10 10 10 10 10 10 11 11 11 11 11 11 11 11 11 11 10 6 6 9 10 9 9 10 10
4 3 3 6 8 9 9 9 9 9 9 10 10 10 10 10 10 9 9 9 9 9 9 10 10 10 10 10 10 10 10 10 10 10 5 5 4 7 9 9 9 9 9
4 3 4 7 8 8 8 8 8 9 9 9 9 10 10 10 9 9 9 9 9 9 9 9 9 9 10 9 9 9 9 9 10 8 5 4 4 6 8 8 8 8 8
4 3 4 7 8 8 8 8 8 8 8 8 9 9 9 9 9 9 8 8 8 8 8 9 8 9 9 9 9 9 9 9 8 5 4 4 3 6 7 7 8 8 8
4 3 3 7 7 8 8 8 7 7 7 8 8 8 8 8 8 8 8 8 7 7 8 8 8 8 8 8 9 9 9 8 5 4 4 3 3 6 6 6 7 7 7
5 4 3 5 6 7 7 8 7 7 6 6 7 7 7 7 7 8 7 7 7 7 7 7 7 7 7 8 8 8 8 8 5 4 3 3 4 5 6 6 6 6 6
4 4 3 3 4 5 7 7 7 6 6 6 6 7 7 6 7 7 6 6 6 6 7 7 7 7 7 7 7 7 8 8 5 3 3 2 4 5 5 5 5 5 5
3 3 3 3 3 3 4 5 6 6 6 6 6 7 7 6 6 6 5 5 5 6 6 6 6 6 7 7 7 7 7 6 3 3 2 2 4 4 4 4 4 4 4
2 2 2 3 3 3 3 4 4 5 5 5 5 6 6 3 3 3 4 5 5 5 5 6 6 7 7 6 6 6 5 2 2 2 2 4 4 4 4 4 4 4 4
4 3 2 3 3 3 3 3 2 3 2 3 3 3 3 3 3 4 5 5 5 5 5 6 7 7 6 3 4 5 2 2 2 2 2 5 4 4 3 3 4 4 4
5 4 3 3 3 3 3 3 2 2 2 2 3 3 3 3 2 3 2 2 3 4 3 4 4 3 3 2 2 2 2 2 1 2 3 5 4 4 4 4 4 4 4
4 4 4 4 4 3 3 3 3 2 2 2 2 3 2 2 2 1 1 1 1 1 2 2 2 2 2 2 2 2 2 1 1 1 2 5 5 4 4 5 5 5 4
5 5 4 4 5 4 3 3 3 2 2 2 2 2 2 2 2 1 1 1 1 1 1 1 1 2 2 2 2 2 1 2 1 1 2 5 5 5 5 5 5 5 5
6 6 5 5 5 5 4 3 3 3 3 3 2 2 2 2 2 1 1 1 1 1 1 1 1 1 1 1 1 1 1 1 1 2 1 3 5 6 5 5 5 5 5
6 5 6 6 5 5 5 4 3 3 3 3 2 3 3 2 2 2 1 1 0 1 1 1 1 1 1 1 1 1 1 1 1 1 2 1 2 5 6 6 6 6 6
5 5 5 4 5 5 5 4 3 3 3 3 2 2 3 3 3 2 1 1 1 1 1 1 1 1 1 0 1 1 1 1 1 1 1 1 1 2 4 6 7 7 7
4 5 5 5 6 5 5 4 3 3 3 3 2 2 3 3 3 3 2 1 1 1 1 1 1 1 1 0 0 1 1 1 1 1 1 1 1 1 1 4 6 7 8
3 4 4 5 5 4 4 3 2 2 2 2 3 3 3 3 3 3 2 2 2 1 1 1 1 1 1 0 0 1 1 1 1 1 2 1 1 2 1 2 2 4 7
2 3 4 4 4 4 3 4 3 3 3 2 2 3 4 4 4 3 2 2 2 2 2 2 1 1 0 0 1 1 2 1 1 1 1 1 2 2 1 1 1 1 2
1 2 3 4 4 4 4 3 3 3 2 2 2 2 3 3 4 3 3 3 3 2 2 2 2 1 1 1 1 0 2 2 1 1 1 1 2 1 2 2 2 1 1
1 1 2 3 3 4 3 2 2 2 1 1 2 2 2 3 3 3 4 3 3 3 3 3 3 3 2 1 1 2 1 2 2 2 2 2 2 2 2 2 2 2 2
2 1 1 2 3 3 3 4 5 4 3 3 2 2 2 2 3 3 3 3 3 3 3 3 3 3 3 2 1 1 1 2 1 2 2 1 2 3 3 3 2 3 2
1 0 1 2 2 3 3 4 4 3 2 2 2 2 2 2 2 2 2 3 3 3 3 3 3 3 3 3 2 2 1 1 2 2 4 3 2 2 3 3 2 2 2
1 1 1 1 2 2 3 3 4 3 3 3 2 2 2 1 1 2 2 2 2 2 3 3 3 4 3 3 3 2 2 2 3 3 4 4 4 3 3 3 3 3 2
Wind_Direction
224 212 177 142 137 131 128 126 123 119 116 113 111 110 109 105 102 99 97 94 91 89 87 86 83 81 79 77 75 74 72 70 67 65 63 63 64 66 65 63 60 56 61
170 176 146 134 137 133 127 126 124 121 120 117 115 113 111 107 105 101 99 96 93 92 89 86 84 82 80 76 75 74 73 70 65 62 58 55 57 61 63 61 60 60 58
131 141 142 132 134 130 126 124 126 124 122 119 118 116 113 110 106 102 99 96 94 93 90 87 85 84 81 77 75 75 74 70 65 59 51 38 44 57 60 58 58 58 57
127 125 135 128 133 132 129 126 127 126 123 121 120 118 116 112 107 104 100 95 94 94 91 88 86 84 81 78 75 74 74 70 64 56 44 31 30 52 56 58 59 58 54
116 112 121 123 129 131 132 129 128 127 126 124 122 118 117 115 111 105 100 96 93 93 92 89 86 83 81 78 74 73 73 69 64 54 41 30 25 46 53 58 58 54 50
116 106 115 120 126 131 134 132 130 128 127 127 123 119 116 114 113 109 104 98 95 93 93 90 86 83 81 78 74 71 70 67 63 48 38 26 20 42 51 57 58 56 54
124 111 118 117 122 125 127 132 131 128 125 127 124 121 118 114 109 107 104 101 97 94 95 93 89 85 80 77 76 73 68 66 63 49 35 21 23 45 50 54 58 56 53
124 114 109 117 118 123 125 120 117 121 123 126 126 123 119 114 110 106 102 99 97 96 97 95 90 89 83 80 77 74 68 63 58 45 32 16 23 42 48 50 55 53 51
108 110 111 121 122 123 118 114 111 112 113 112 113 117 114 108 104 100 98 97 99 97 98 96 92 88 83 78 75 73 66 60 54 37 26 12 25 39 45 44 48 50 50
98 108 117 114 111 121 123 112 108 104 103 101 97 95 95 95 95 92 90 90 96 97 97 95 91 86 81 75 71 67 60 54 43 32 14 0 21 33 36 36 41 43 44
117 123 129 127 123 120 120 110 106 101 97 97 93 90 87 79 82 82 79 78 82 87 93 95 89 84 76 68 63 60 54 42 32 17 358 3 17 22 23 26 32 33 36
183 178 163 157 149 136 129 118 107 95 89 84 81 81 81 79 72 72 70 72 74 74 84 88 80 74 67 56 48 49 44 38 31 6 353 2 9 11 17 20 22 26 24
189 182 179 175 164 152 141 131 121 110 102 89 89 90 90 84 72 64 64 54 56 61 64 71 68 62 63 61 50 44 43 43 25 358 349 359 7 13 18 18 16 13 9
184 192 188 177 169 164 148 143 139 134 129 119 112 110 107 97 86 81 76 71 70 71 79 74 80 73 70 64 59 53 41 31 19 356 349 2 4 5 5 1 358 354 352
197 197 193 183 176 169 158 157 149 153 143 136 131 128 124 125 123 114 104 94 94 99 111 100 90 82 66 53 47 49 33 21 12 8 347 357 358 357 357 355 347 347 341
210 205 194 187 179 169 170 168 163 162 151 146 146 144 142 141 141 141 139 117 104 113 131 133 122 102 74 50 35 28 18 9 1 356 356 353 358 356 351 344 340 338 334
213 203 194 188 177 174 174 170 163 161 155 156 162 158 155 149 150 153 156 150 146 133 121 106 99 92 80 52 14 346 345 349 352 347 350 352 349 351 347 340 336 330 324
207 197 193 181 177 179 173 167 164 161 161 165 166 167 168 164 156 153 160 178 165 133 125 121 111 92 85 67 337 333 332 322 322 324 338 350 349 341 340 338 335 329 319
209 196 186 182 180 180 171 161 158 159 165 169 169 172 178 174 165 164 173 179 161 141 133 136 112 131 156 289 309 313 313 304 299 312 307 317 311 312 316 329 331 327 322
204 192 183 178 177 170 160 147 147 155 167 170 178 184 179 180 177 173 172 166 159 151 152 148 134 104 153 201 309 321 306 290 295 288 287 300 300 304 309 312 317 319 320
189 183 180 177 178 166 165 172 177 188 185 186 188 186 184 183 179 177 175 168 170 178 186 171 157 143 71 102 56 337 318 275 263 264 283 292 295 299 302 294 292 304 318
207 193 182 182 180 178 180 180 177 169 177 184 182 187 187 187 185 183 178 179 183 182 178 175 156 161 152 139 135 79 324 322 300 277 268 256 273 287 292 292 281 281 296
258 215 189 182 178 179 170 147 126 111 105 157 193 202 197 195 194 192 186 179 184 184 192 193 182 177 188 198 171 156 167 249 298 288 261 260 266 269 276 281 271 276 277
251 232 191 172 170 171 163 166 170 177 187 196 190 197 202 198 196 191 191 183 184 190 193 195 190 188 175 195 214 220 198 181 215 293 293 280 276 270 273 281 278 273 271
296 308 181 156 159 165 170 175 180 184 185 168 160 178 191 197 193 185 187 184 186 194 197 195 190 192 190 190 189 190 209 228 219 227 276 292 298 273 269 267 266 268 270
19 24 57 135 163 169 174 178 184 183 170 158 169 186 195 198 201 187 189 190 190 196 198 200 196 196 201 199 197 191 193 201 209 217 249 274 287 287 281 268 260 262 260